CCA4566 ZSAM-ZUCK

Flight info

Callsign CCA4566
Flight time 2h 12m
Altitude 32100
Route NUSPA9Z NUSPA W598 DABER W155 VETIB DCT NUVGA DCT XEBUL DCT MABAG DCT WYN G586 QP B330 ELKAL W179 SUMUN W3 AGTIS/K0874S1010 W3 ASIPO/K0865S1040 W678 SEGDA SEGDD2
Aircraft A320/M-SDE3FGHIRWY/LB1

Departure

Time 2026-04-28 17:47
Airport Xiamen Gaoqi International Airport (ZSAM)

Arrival

Time 2026-04-28 19:59
Airport Chongqing Jiangbei International Airport (ZUCK)
Time Latitude Longitude Altitude Speed Heading
2026-04-28 17:32 24.54716 118.14007 45 ft 0 kts 52°
2026-04-28 17:39 24.54713 118.14002 47 ft 2 kts 51°
2026-04-28 17:40 24.54700 118.13986 47 ft 3 kts 45°
2026-04-28 17:40 24.54685 118.13971 45 ft 3 kts 35°
2026-04-28 17:40 24.54668 118.13960 43 ft 3 kts 19°
2026-04-28 17:40 24.54650 118.13956 45 ft 3 kts 343°
2026-04-28 17:41 24.54639 118.13962 43 ft 1 kts 302°
2026-04-28 17:41 24.54641 118.13957 47 ft 2 kts 295°
2026-04-28 17:41 24.54644 118.13937 44 ft 3 kts 286°
2026-04-28 17:41 24.54655 118.13926 43 ft 1 kts 321°
2026-04-28 17:42 24.54656 118.13925 43 ft 0 kts 321°
2026-04-28 17:44 24.54679 118.13904 47 ft 11 kts 321°
2026-04-28 17:44 24.54759 118.13834 46 ft 15 kts 321°
2026-04-28 17:44 24.54837 118.13767 47 ft 14 kts 323°
2026-04-28 17:44 24.54912 118.13756 47 ft 11 kts 43°
2026-04-28 17:45 24.54967 118.13831 44 ft 14 kts 52°
2026-04-28 17:45 24.55037 118.13930 43 ft 19 kts 52°
2026-04-28 17:45 24.55122 118.14050 45 ft 21 kts 51°
2026-04-28 17:45 24.55209 118.14164 45 ft 13 kts 35°
2026-04-28 17:46 24.55282 118.14133 45 ft 11 kts 322°
2026-04-28 17:46 24.55334 118.14084 44 ft 8 kts 308°
2026-04-28 17:46 24.55314 118.14030 44 ft 13 kts 232°
2026-04-28 17:46 24.55154 118.13805 45 ft 72 kts 232°
2026-04-28 17:47 24.54718 118.13195 47 ft 130 kts 232°
2026-04-28 17:47 24.54054 118.12271 54 ft 175 kts 231°
2026-04-28 17:47 24.53262 118.11163 486 ft 184 kts 231°
2026-04-28 17:47 24.52740 118.10433 954 ft 183 kts 231°
2026-04-28 17:48 24.51652 118.08927 1604 ft 200 kts 230°
2026-04-28 17:48 24.50748 118.07668 1909 ft 219 kts 230°
2026-04-28 17:48 24.49763 118.06289 2398 ft 234 kts 230°
2026-04-28 17:48 24.48755 118.04873 3217 ft 236 kts 230°
2026-04-28 17:49 24.47737 118.03447 4052 ft 238 kts 230°
2026-04-28 17:49 24.46708 118.02009 4861 ft 241 kts 229°
2026-04-28 17:49 24.45582 118.00654 5614 ft 241 kts 216°
2026-04-28 17:49 24.44136 117.99742 6391 ft 241 kts 199°
2026-04-28 17:50 24.42489 117.99369 7120 ft 243 kts 187°
2026-04-28 17:50 24.40804 117.99160 7858 ft 245 kts 187°
2026-04-28 17:50 24.39098 117.98941 8601 ft 248 kts 188°
2026-04-28 17:50 24.37373 117.98717 9299 ft 251 kts 188°
2026-04-28 17:51 24.35677 117.98247 9948 ft 254 kts 206°
2026-04-28 17:51 24.34184 117.97153 10333 ft 269 kts 225°
2026-04-28 17:51 24.32950 117.95500 10535 ft 292 kts 232°
2026-04-28 17:51 24.31663 117.93662 10687 ft 315 kts 232°
2026-04-28 17:52 24.30275 117.91691 10812 ft 337 kts 232°
2026-04-28 17:52 24.28789 117.89600 10960 ft 356 kts 231°
2026-04-28 17:52 24.25672 117.85241 11988 ft 367 kts 231°
2026-04-28 17:53 24.23995 117.83128 12584 ft 369 kts 225°
2026-04-28 17:53 24.22152 117.81146 13180 ft 372 kts 225°
2026-04-28 17:53 24.20303 117.79156 13754 ft 374 kts 225°
2026-04-28 17:53 24.18464 117.77179 14251 ft 376 kts 225°
2026-04-28 17:54 24.16588 117.75164 14735 ft 379 kts 225°
2026-04-28 17:54 24.14695 117.73135 15206 ft 382 kts 225°
2026-04-28 17:54 24.12786 117.71094 15628 ft 385 kts 225°
2026-04-28 17:54 24.10862 117.69038 16068 ft 388 kts 225°
2026-04-28 17:55 24.08956 117.66923 16521 ft 390 kts 230°
2026-04-28 17:55 24.07427 117.64463 16956 ft 393 kts 242°
2026-04-28 17:55 24.06431 117.61676 17397 ft 396 kts 255°
2026-04-28 17:55 24.06024 117.58693 17822 ft 400 kts 266°
2026-04-28 17:56 24.06217 117.55640 18235 ft 404 kts 275°
2026-04-28 17:56 24.06594 117.52585 18600 ft 406 kts 275°
2026-04-28 17:56 24.06965 117.49511 18962 ft 408 kts 275°
2026-04-28 17:56 24.07330 117.46419 19315 ft 410 kts 275°
2026-04-28 17:57 24.07690 117.43316 19650 ft 413 kts 275°
2026-04-28 17:57 24.08048 117.40194 20019 ft 414 kts 275°
2026-04-28 17:57 24.08410 117.37055 20381 ft 416 kts 275°
2026-04-28 17:57 24.08771 117.33949 20732 ft 418 kts 275°
2026-04-28 17:58 24.09146 117.30739 21065 ft 420 kts 275°
2026-04-28 17:58 24.09514 117.27601 21392 ft 422 kts 275°
2026-04-28 17:58 24.09888 117.24411 21732 ft 424 kts 275°
2026-04-28 17:58 24.10262 117.21201 22052 ft 426 kts 275°
2026-04-28 17:59 24.10634 117.17980 22362 ft 427 kts 275°
2026-04-28 17:59 24.11008 117.14748 22677 ft 429 kts 275°
2026-04-28 17:59 24.11384 117.11498 22984 ft 431 kts 275°
2026-04-28 17:59 24.11760 117.08238 23279 ft 433 kts 275°
2026-04-28 18:00 24.12138 117.04957 23556 ft 434 kts 275°
2026-04-28 18:00 24.12515 117.01676 23803 ft 436 kts 275°
2026-04-28 18:00 24.12893 116.98367 24056 ft 438 kts 275°
2026-04-28 18:00 24.13271 116.95058 24292 ft 439 kts 275°
2026-04-28 18:01 24.13652 116.91732 24505 ft 441 kts 275°
2026-04-28 18:01 24.14035 116.88389 24726 ft 443 kts 275°
2026-04-28 18:01 24.14392 116.85039 24955 ft 444 kts 273°
2026-04-28 18:01 24.14632 116.81664 25159 ft 445 kts 271°
2026-04-28 18:02 24.14776 116.78278 25391 ft 446 kts 270°
2026-04-28 18:02 24.14867 116.74870 25619 ft 447 kts 270°
2026-04-28 18:02 24.14942 116.71503 25823 ft 449 kts 270°
2026-04-28 18:02 24.15030 116.68085 26043 ft 450 kts 270°
2026-04-28 18:03 24.15143 116.64651 26264 ft 452 kts 270°
2026-04-28 18:03 24.15278 116.61199 26464 ft 454 kts 271°
2026-04-28 18:03 24.15421 116.57747 26721 ft 454 kts 271°
2026-04-28 18:03 24.15564 116.54303 27055 ft 452 kts 271°
2026-04-28 18:04 24.15711 116.50860 27367 ft 452 kts 271°
2026-04-28 18:04 24.15854 116.47421 27655 ft 451 kts 271°
2026-04-28 18:04 24.15991 116.43994 27955 ft 450 kts 271°
2026-04-28 18:04 24.16157 116.40573 28251 ft 450 kts 272°
2026-04-28 18:05 24.16388 116.37152 28529 ft 450 kts 273°
2026-04-28 18:05 24.16566 116.34896 28707 ft 449 kts 274°
2026-04-28 18:05 24.16954 116.30334 29099 ft 449 kts 274°
2026-04-28 18:05 24.17243 116.26936 29406 ft 448 kts 274°
2026-04-28 18:06 24.17519 116.23537 29712 ft 448 kts 273°
2026-04-28 18:06 24.17780 116.20141 30040 ft 446 kts 273°
2026-04-28 18:06 24.18028 116.16764 30326 ft 445 kts 273°
2026-04-28 18:06 24.18268 116.13428 30606 ft 444 kts 273°
2026-04-28 18:07 24.18506 116.10066 30897 ft 442 kts 273°
2026-04-28 18:07 24.18748 116.06711 31189 ft 441 kts 273°
2026-04-28 18:07 24.18993 116.03368 31462 ft 440 kts 273°
2026-04-28 18:07 24.19239 116.00033 31751 ft 439 kts 273°
2026-04-28 18:08 24.19483 115.96705 31971 ft 438 kts 273°
2026-04-28 18:08 24.19724 115.93377 32030 ft 440 kts 273°
2026-04-28 18:08 24.20200 115.86678 32028 ft 441 kts 273°
2026-04-28 18:09 24.20681 115.79974 32027 ft 442 kts 273°
2026-04-28 18:09 24.21169 115.73266 32025 ft 442 kts 273°
2026-04-28 18:10 24.21646 115.66553 32025 ft 442 kts 273°
2026-04-28 18:10 24.22119 115.59840 32031 ft 442 kts 272°
2026-04-28 18:11 24.22587 115.53134 32034 ft 441 kts 272°
2026-04-28 18:11 24.23053 115.46441 32033 ft 440 kts 272°
2026-04-28 18:12 24.23554 115.39755 32035 ft 440 kts 274°
2026-04-28 18:12 24.24152 115.33078 32031 ft 440 kts 274°
2026-04-28 18:13 24.24762 115.26443 32033 ft 440 kts 274°
2026-04-28 18:13 24.25358 115.19767 32033 ft 440 kts 274°
2026-04-28 18:14 24.25942 115.13093 32032 ft 440 kts 274°
2026-04-28 18:14 24.26513 115.06418 32023 ft 440 kts 274°
2026-04-28 18:15 24.27076 114.99744 32017 ft 439 kts 273°
2026-04-28 18:15 24.27642 114.93078 32015 ft 439 kts 274°
2026-04-28 18:16 24.28211 114.86413 32016 ft 439 kts 274°
2026-04-28 18:16 24.28788 114.79744 32016 ft 439 kts 274°
2026-04-28 18:17 24.29386 114.73081 32016 ft 439 kts 274°
2026-04-28 18:17 24.29978 114.66406 32015 ft 439 kts 274°
2026-04-28 18:18 24.30460 114.60865 32023 ft 439 kts 274°
2026-04-28 18:18 24.31034 114.54194 32015 ft 439 kts 274°
2026-04-28 18:19 24.31611 114.47520 32022 ft 440 kts 274°
2026-04-28 18:19 24.32239 114.40855 32017 ft 440 kts 274°
2026-04-28 18:20 24.32877 114.34178 32016 ft 440 kts 274°
2026-04-28 18:20 24.33494 114.27555 32016 ft 440 kts 274°
2026-04-28 18:21 24.34107 114.20887 32019 ft 440 kts 274°
2026-04-28 18:21 24.34718 114.14218 32018 ft 439 kts 274°
2026-04-28 18:22 24.35347 114.07553 32021 ft 439 kts 274°
2026-04-28 18:22 24.36056 114.00894 32029 ft 439 kts 275°
2026-04-28 18:23 24.36781 113.94251 32023 ft 438 kts 275°
2026-04-28 18:23 24.37481 113.87620 32014 ft 438 kts 274°
2026-04-28 18:24 24.38052 113.82101 32023 ft 438 kts 274°
2026-04-28 18:24 24.38852 113.74374 32009 ft 438 kts 274°
2026-04-28 18:25 24.39535 113.67745 31997 ft 438 kts 274°
2026-04-28 18:26 24.40559 113.57772 31994 ft 439 kts 274°
2026-04-28 18:26 24.41239 113.51119 31992 ft 439 kts 274°
2026-04-28 18:27 24.41915 113.44454 31989 ft 439 kts 274°
2026-04-28 18:27 24.42591 113.37792 31986 ft 440 kts 274°
2026-04-28 18:28 24.43285 113.31095 32339 ft 442 kts 274°
2026-04-28 18:28 24.43633 113.27746 32619 ft 441 kts 274°
2026-04-28 18:28 24.43980 113.24404 32912 ft 440 kts 274°
2026-04-28 18:28 24.44319 113.21116 33198 ft 439 kts 274°
2026-04-28 18:29 24.44661 113.17789 33492 ft 438 kts 273°
2026-04-28 18:29 24.45000 113.14481 33789 ft 436 kts 273°
2026-04-28 18:29 24.45338 113.11169 33957 ft 435 kts 273°
2026-04-28 18:30 24.46004 113.04562 34004 ft 436 kts 273°
2026-04-28 18:30 24.46666 112.97946 34004 ft 436 kts 273°
2026-04-28 18:31 24.47322 112.91336 34001 ft 436 kts 273°
2026-04-28 18:31 24.47978 112.84720 33996 ft 436 kts 273°
2026-04-28 18:32 24.48632 112.78105 34001 ft 436 kts 273°
2026-04-28 18:32 24.49275 112.71486 33993 ft 435 kts 273°
2026-04-28 18:33 24.49922 112.64921 33988 ft 435 kts 273°
2026-04-28 18:33 24.50574 112.58311 33979 ft 436 kts 273°
2026-04-28 18:34 24.51224 112.51690 33978 ft 436 kts 273°
2026-04-28 18:34 24.51861 112.45076 33985 ft 436 kts 273°
2026-04-28 18:35 24.52499 112.38443 33964 ft 437 kts 273°
2026-04-28 18:35 24.53136 112.31794 33958 ft 439 kts 273°
2026-04-28 18:36 24.53773 112.25127 33954 ft 439 kts 273°
2026-04-28 18:36 24.54410 112.18460 33961 ft 439 kts 273°
2026-04-28 18:37 24.55041 112.11794 33974 ft 439 kts 274°
2026-04-28 18:37 24.55671 112.05127 33958 ft 440 kts 274°
2026-04-28 18:38 24.56296 111.98475 33958 ft 441 kts 274°
2026-04-28 18:38 24.56917 111.91774 33960 ft 442 kts 274°
2026-04-28 18:39 24.57539 111.85058 33962 ft 442 kts 274°
2026-04-28 18:39 24.58165 111.78316 34005 ft 443 kts 273°
2026-04-28 18:40 24.58785 111.71568 33962 ft 445 kts 273°
2026-04-28 18:40 24.59402 111.64785 33947 ft 447 kts 273°
2026-04-28 18:41 24.60012 111.58026 33954 ft 447 kts 273°
2026-04-28 18:41 24.60630 111.51214 33951 ft 448 kts 273°
2026-04-28 18:42 24.61247 111.44398 33949 ft 448 kts 273°
2026-04-28 18:42 24.61862 111.37577 33947 ft 449 kts 273°
2026-04-28 18:43 24.62471 111.30751 33960 ft 449 kts 273°
2026-04-28 18:43 24.63071 111.23921 33947 ft 449 kts 272°
2026-04-28 18:44 24.63657 111.17087 33955 ft 449 kts 272°
2026-04-28 18:44 24.64534 111.06837 33956 ft 449 kts 272°
2026-04-28 18:45 24.65115 111.00044 33958 ft 449 kts 272°
2026-04-28 18:45 24.65697 110.93198 33966 ft 449 kts 272°
2026-04-28 18:46 24.66271 110.86371 33957 ft 448 kts 272°
2026-04-28 18:46 24.67479 110.79691 33960 ft 454 kts 288°
2026-04-28 18:47 24.70797 110.73730 33958 ft 465 kts 308°
2026-04-28 18:47 24.75472 110.68771 33959 ft 467 kts 312°
2026-04-28 18:48 24.80163 110.63840 33966 ft 466 kts 311°
2026-04-28 18:48 24.84852 110.58905 33971 ft 466 kts 311°
2026-04-28 18:49 24.87984 110.55601 33964 ft 466 kts 311°
2026-04-28 18:49 24.94205 110.49013 33961 ft 466 kts 311°
2026-04-28 18:50 24.98877 110.44071 33973 ft 465 kts 311°
2026-04-28 18:50 25.03539 110.39133 33973 ft 464 kts 311°
2026-04-28 18:51 25.08200 110.34207 34003 ft 464 kts 311°
2026-04-28 18:51 25.12856 110.29295 34030 ft 463 kts 311°
2026-04-28 18:52 25.17503 110.24381 34051 ft 462 kts 311°
2026-04-28 18:52 25.22116 110.19495 34063 ft 462 kts 311°
2026-04-28 18:53 25.26774 110.14605 34072 ft 462 kts 312°
2026-04-28 18:53 25.31439 110.09731 33984 ft 462 kts 311°
2026-04-28 18:54 25.36108 110.04852 34002 ft 461 kts 311°
2026-04-28 18:54 25.40759 109.99973 33998 ft 461 kts 311°
2026-04-28 18:55 25.44618 109.95909 33997 ft 461 kts 311°
2026-04-28 18:55 25.50048 109.90192 34033 ft 460 kts 311°
2026-04-28 18:56 25.54682 109.85310 34026 ft 460 kts 311°
2026-04-28 18:56 25.59315 109.80433 34023 ft 459 kts 311°
2026-04-28 18:57 25.63942 109.75542 34043 ft 460 kts 310°
2026-04-28 18:57 25.68545 109.70676 34040 ft 460 kts 310°
2026-04-28 18:58 25.73173 109.65774 34043 ft 460 kts 310°
2026-04-28 18:58 25.77209 109.60403 34044 ft 448 kts 294°
2026-04-28 18:59 25.79496 109.54106 34045 ft 437 kts 281°
2026-04-28 18:59 25.81197 109.47614 34059 ft 438 kts 281°
2026-04-28 19:00 25.82912 109.41121 34070 ft 438 kts 281°
2026-04-28 19:00 25.84624 109.34627 34098 ft 438 kts 281°
2026-04-28 19:01 25.86322 109.28134 34102 ft 437 kts 281°
2026-04-28 19:01 25.88013 109.21651 34121 ft 437 kts 281°
2026-04-28 19:02 25.89697 109.15223 34108 ft 437 kts 281°
2026-04-28 19:02 25.91389 109.08743 34131 ft 436 kts 281°
2026-04-28 19:03 25.93069 109.02285 34141 ft 435 kts 281°
2026-04-28 19:03 25.94778 108.95843 34138 ft 435 kts 282°
2026-04-28 19:04 25.96499 108.89409 34145 ft 434 kts 282°
2026-04-28 19:04 25.98214 108.82977 34146 ft 434 kts 282°
2026-04-28 19:05 25.99912 108.76550 34157 ft 433 kts 282°
2026-04-28 19:05 26.01608 108.70122 34154 ft 433 kts 282°
2026-04-28 19:06 26.03027 108.64785 34153 ft 433 kts 282°
2026-04-28 19:06 26.05022 108.57289 34151 ft 433 kts 282°
2026-04-28 19:07 26.06731 108.50869 34156 ft 433 kts 282°
2026-04-28 19:07 26.08416 108.44491 34154 ft 432 kts 282°
2026-04-28 19:08 26.10345 108.38142 34203 ft 438 kts 290°
2026-04-28 19:08 26.12999 108.32039 34203 ft 438 kts 290°
2026-04-28 19:09 26.15648 108.25944 34203 ft 438 kts 290°
2026-04-28 19:09 26.17847 108.20867 34214 ft 438 kts 290°
2026-04-28 19:10 26.20477 108.14762 34213 ft 437 kts 290°
2026-04-28 19:10 26.23100 108.08660 34212 ft 437 kts 290°
2026-04-28 19:11 26.25729 108.02553 34216 ft 437 kts 290°
2026-04-28 19:11 26.28355 107.96439 34221 ft 437 kts 290°
2026-04-28 19:12 26.30978 107.90336 34222 ft 437 kts 290°
2026-04-28 19:12 26.33603 107.84223 34258 ft 437 kts 290°
2026-04-28 19:13 26.36199 107.78159 34257 ft 435 kts 290°
2026-04-28 19:13 26.38789 107.72091 34269 ft 432 kts 289°
2026-04-28 19:14 26.41363 107.66043 34265 ft 431 kts 290°
2026-04-28 19:14 26.43935 107.60018 34267 ft 430 kts 290°
2026-04-28 19:15 26.46497 107.54006 34258 ft 429 kts 289°
2026-04-28 19:15 26.48642 107.48970 34261 ft 428 kts 289°
2026-04-28 19:16 26.51601 107.41990 34258 ft 428 kts 289°
2026-04-28 19:16 26.54133 107.35978 34267 ft 428 kts 289°
2026-04-28 19:17 26.56670 107.29966 34272 ft 428 kts 289°
2026-04-28 19:17 26.59219 107.23956 34271 ft 428 kts 289°
2026-04-28 19:18 26.61762 107.17958 34273 ft 427 kts 289°
2026-04-28 19:18 26.64301 107.11959 34270 ft 427 kts 289°
2026-04-28 19:19 26.66844 107.05962 34270 ft 427 kts 289°
2026-04-28 19:19 26.69375 106.99996 34286 ft 427 kts 289°
2026-04-28 19:20 26.71921 106.93987 34280 ft 428 kts 289°
2026-04-28 19:20 26.74472 106.87969 34280 ft 428 kts 289°
2026-04-28 19:21 26.77587 106.82221 34297 ft 445 kts 306°
2026-04-28 19:21 26.79987 106.79949 34291 ft 461 kts 319°
2026-04-28 19:21 26.82917 106.78354 34285 ft 477 kts 334°
2026-04-28 19:22 26.86221 106.77610 34279 ft 493 kts 349°
2026-04-28 19:22 26.88498 106.77475 34274 ft 496 kts 350°
2026-04-28 19:22 26.96580 106.77086 34264 ft 498 kts 350°
2026-04-28 19:23 27.03504 106.76750 34273 ft 498 kts 350°
2026-04-28 19:23 27.10430 106.76388 34302 ft 498 kts 349°
2026-04-28 19:24 27.17365 106.76016 34295 ft 498 kts 349°
2026-04-28 19:24 27.24281 106.75650 34292 ft 498 kts 349°
2026-04-28 19:25 27.31154 106.75296 34294 ft 498 kts 349°
2026-04-28 19:25 27.38078 106.74952 34293 ft 499 kts 350°
2026-04-28 19:26 27.45035 106.74860 34291 ft 501 kts 353°
2026-04-28 19:26 27.52016 106.74965 34289 ft 502 kts 353°
2026-04-28 19:27 27.59002 106.75048 34289 ft 501 kts 353°
2026-04-28 19:27 27.65982 106.75052 34313 ft 500 kts 352°
2026-04-28 19:28 27.72906 106.75026 34303 ft 500 kts 352°
2026-04-28 19:28 27.79872 106.75015 34306 ft 501 kts 352°
2026-04-28 19:29 27.85715 106.75021 34298 ft 501 kts 352°
2026-04-28 19:29 27.93815 106.75035 34320 ft 501 kts 353°
2026-04-28 19:30 28.00790 106.75044 34318 ft 501 kts 352°
2026-04-28 19:30 28.07756 106.75044 34310 ft 501 kts 352°
2026-04-28 19:31 28.14742 106.75044 34311 ft 501 kts 352°
2026-04-28 19:31 28.21718 106.75053 34326 ft 501 kts 353°
2026-04-28 19:32 28.28693 106.75068 34316 ft 501 kts 353°
2026-04-28 19:32 28.35532 106.74564 34310 ft 492 kts 345°
2026-04-28 19:33 28.42334 106.73556 34304 ft 493 kts 345°
2026-04-28 19:33 28.49138 106.72554 34338 ft 493 kts 345°
2026-04-28 19:34 28.55931 106.71549 34327 ft 492 kts 344°
2026-04-28 19:34 28.62722 106.70533 34320 ft 492 kts 344°
2026-04-28 19:35 28.69513 106.69542 34326 ft 493 kts 347°
2026-04-28 19:35 28.76353 106.69183 34321 ft 487 kts 341°
2026-04-28 19:36 28.79565 106.68187 34334 ft 472 kts 329°
2026-04-28 19:36 28.82495 106.66612 34323 ft 460 kts 321°
2026-04-28 19:36 28.87474 106.62304 34302 ft 441 kts 305°
2026-04-28 19:37 28.90747 106.57937 34291 ft 435 kts 300°
2026-04-28 19:37 28.95208 106.51677 34281 ft 434 kts 300°
2026-04-28 19:38 28.99018 106.46304 34278 ft 435 kts 300°
2026-04-28 19:38 29.02824 106.40944 34303 ft 433 kts 301°
2026-04-28 19:39 29.06621 106.35599 33774 ft 435 kts 300°
2026-04-28 19:39 29.08542 106.32886 32629 ft 443 kts 301°
2026-04-28 19:39 29.10479 106.30157 32174 ft 436 kts 301°
2026-04-28 19:40 29.12366 106.27519 32047 ft 421 kts 302°
2026-04-28 19:40 29.14164 106.25004 31922 ft 407 kts 301°
2026-04-28 19:40 29.15921 106.22536 31797 ft 393 kts 301°
2026-04-28 19:40 29.17619 106.20147 31666 ft 381 kts 301°
2026-04-28 19:41 29.19257 106.17831 31547 ft 368 kts 301°
2026-04-28 19:41 29.20838 106.15588 31384 ft 357 kts 300°
2026-04-28 19:41 29.22401 106.13397 31066 ft 354 kts 304°
2026-04-28 19:41 29.24283 106.11540 30371 ft 365 kts 320°
2026-04-28 19:42 29.26500 106.10108 29596 ft 365 kts 323°
2026-04-28 19:42 29.28720 106.08720 28909 ft 360 kts 323°
2026-04-28 19:42 29.30940 106.07441 28264 ft 359 kts 332°
2026-04-28 19:42 29.32533 106.06894 27847 ft 362 kts 340°
2026-04-28 19:43 29.35808 106.06076 26960 ft 357 kts 340°
2026-04-28 19:43 29.38216 106.05478 26331 ft 352 kts 341°
2026-04-28 19:43 29.40655 106.05148 25744 ft 356 kts 355°
2026-04-28 19:43 29.43124 106.05314 25160 ft 354 kts 358°
2026-04-28 19:44 29.45566 106.05507 24577 ft 349 kts 358°
2026-04-28 19:44 29.47977 106.05714 24001 ft 346 kts
2026-04-28 19:44 29.50325 106.06380 23382 ft 349 kts 15°
2026-04-28 19:44 29.52587 106.07338 22748 ft 344 kts 15°
2026-04-28 19:45 29.54790 106.08277 22195 ft 339 kts 15°
2026-04-28 19:45 29.56967 106.09265 21613 ft 336 kts 23°
2026-04-28 19:45 29.58920 106.10722 21082 ft 334 kts 33°
2026-04-28 19:45 29.60766 106.12315 20541 ft 329 kts 33°
2026-04-28 19:46 29.62577 106.13877 20028 ft 323 kts 33°
2026-04-28 19:46 29.64325 106.15471 19524 ft 319 kts 41°
2026-04-28 19:46 29.65743 106.17424 19040 ft 316 kts 50°
2026-04-28 19:46 29.67009 106.19477 18557 ft 313 kts 59°
2026-04-28 19:47 29.67608 106.21866 18048 ft 314 kts 86°
2026-04-28 19:47 29.67201 106.24316 17491 ft 317 kts 114°
2026-04-28 19:47 29.65845 106.26288 16934 ft 317 kts 143°
2026-04-28 19:47 29.63952 106.27575 16351 ft 316 kts 151°
2026-04-28 19:48 29.62045 106.28749 15822 ft 314 kts 151°
2026-04-28 19:48 29.60126 106.29922 15322 ft 311 kts 151°
2026-04-28 19:48 29.58210 106.31091 14606 ft 315 kts 151°
2026-04-28 19:48 29.56264 106.32282 13940 ft 318 kts 151°
2026-04-28 19:49 29.54315 106.33481 13180 ft 320 kts 150°
2026-04-28 19:49 29.52335 106.34703 12661 ft 321 kts 150°
2026-04-28 19:49 29.50382 106.35911 12038 ft 317 kts 150°
2026-04-28 19:49 29.48449 106.37105 11433 ft 314 kts 151°
2026-04-28 19:50 29.44791 106.39363 10930 ft 282 kts 151°
2026-04-28 19:50 29.43162 106.40485 10802 ft 266 kts 139°
2026-04-28 19:50 29.41985 106.42076 10637 ft 261 kts 118°
2026-04-28 19:51 29.41335 106.44034 10081 ft 269 kts 106°
2026-04-28 19:51 29.40807 106.46075 9596 ft 264 kts 106°
2026-04-28 19:51 29.40295 106.48058 9085 ft 261 kts 106°
2026-04-28 19:51 29.39781 106.50043 8548 ft 259 kts 106°
2026-04-28 19:52 29.39272 106.52009 8105 ft 254 kts 105°
2026-04-28 19:52 29.39190 106.53920 8014 ft 233 kts 71°
2026-04-28 19:52 29.40085 106.55349 7827 ft 222 kts 31°
2026-04-28 19:52 29.41553 106.55888 7420 ft 223 kts 10°
2026-04-28 19:53 29.43073 106.56303 7104 ft 226 kts 16°
2026-04-28 19:53 29.44587 106.56820 6811 ft 228 kts 17°
2026-04-28 19:53 29.46110 106.57351 6515 ft 229 kts 17°
2026-04-28 19:53 29.47642 106.57883 6202 ft 231 kts 17°
2026-04-28 19:54 29.49182 106.58417 5888 ft 232 kts 17°
2026-04-28 19:54 29.50709 106.58946 5577 ft 226 kts 17°
2026-04-28 19:54 29.52188 106.59459 5284 ft 219 kts 17°
2026-04-28 19:54 29.53619 106.59955 5017 ft 210 kts 17°
2026-04-28 19:55 29.54979 106.60427 4725 ft 199 kts 17°
2026-04-28 19:55 29.56295 106.60884 4465 ft 196 kts 17°
2026-04-28 19:55 29.57570 106.61327 4191 ft 185 kts 16°
2026-04-28 19:55 29.58741 106.61734 3963 ft 167 kts 16°
2026-04-28 19:56 29.59813 106.62106 3749 ft 156 kts 16°
2026-04-28 19:56 29.60839 106.62462 3543 ft 152 kts 16°
2026-04-28 19:56 29.61844 106.62811 3341 ft 150 kts 16°
2026-04-28 19:56 29.62835 106.63156 3144 ft 148 kts 17°
2026-04-28 19:57 29.63816 106.63496 2944 ft 147 kts 17°
2026-04-28 19:57 29.64791 106.63835 2747 ft 146 kts 17°
2026-04-28 19:57 29.65764 106.64174 2551 ft 146 kts 16°
2026-04-28 19:57 29.66732 106.64510 2353 ft 145 kts 16°
2026-04-28 19:58 29.67684 106.64842 2153 ft 144 kts 16°
2026-04-28 19:58 29.68638 106.65172 1952 ft 142 kts 16°
2026-04-28 19:58 29.69585 106.65498 1753 ft 142 kts 16°
2026-04-28 19:58 29.70209 106.65714 1640 ft 141 kts 16°
2026-04-28 19:59 29.71162 106.66045 1442 ft 141 kts 17°
2026-04-28 19:59 29.72088 106.66367 1336 ft 132 kts 16°
2026-04-28 19:59 29.72826 106.66621 1329 ft 88 kts 17°
2026-04-28 19:59 29.73211 106.66746 1324 ft 29 kts
2026-04-28 20:00 29.73386 106.66713 1322 ft 18 kts 347°
2026-04-28 20:00 29.73492 106.66659 1322 ft 16 kts 306°
2026-04-28 20:00 29.73538 106.66556 1324 ft 13 kts 296°
2026-04-28 20:00 29.73565 106.66478 1328 ft 8 kts 286°
2026-04-28 20:01 29.73587 106.66394 1327 ft 15 kts 287°
2026-04-28 20:01 29.73591 106.66295 1330 ft 10 kts 226°
2026-04-28 20:01 29.73533 106.66232 1336 ft 11 kts 242°
2026-04-28 20:01 29.73506 106.66173 1333 ft 7 kts 242°
2026-04-28 20:02 29.73475 106.66137 1334 ft 4 kts 182°
2026-04-28 20:02 29.73451 106.66149 1334 ft 4 kts 153°
2026-04-28 20:02 29.73438 106.66158 1336 ft 0 kts 152°